When you browse on this site, cookies collect data to enhance your experience and personalize the content and advertising you see.
Visit our Privacy Policy to learn more. By continuing to use the site, you agree to this use of cookies and data.
EN

Hourly Weather Baarn

Today, 5 August, Wednesday

Time Temperature Precipitation Wind Pressure Humidity
00:00 +14°C° 0 mm 3 mps 761 mmHg 66%
01:00 +14°C° 0 mm 3 mps 761 mmHg 67%
02:00 +14°C° 0 mm 3 mps 761 mmHg 69%
03:00 +14°C° 0 mm 4 mps 760 mmHg 71%
04:00 +14°C° 0 mm 4 mps 760 mmHg 71%
05:00 +15°C° 0 mm 4 mps 760 mmHg 71%
06:00 +15°C° 0 mm 4 mps 760 mmHg 72%
07:00 +18°C° 0 mm 4 mps 761 mmHg 67%
08:00 +20°C° 0 mm 5 mps 761 mmHg 61%
09:00 +21°C° 0 mm 5 mps 761 mmHg 56%
10:00 +23°C° 0 mm 5 mps 761 mmHg 53%
11:00 +25°C° 0 mm 5 mps 761 mmHg 49%
12:00 +26°C° 0 mm 5 mps 761 mmHg 45%
13:00 +27°C° 0 mm 4 mps 761 mmHg 44%
14:00 +27°C° 0 mm 4 mps 761 mmHg 43%
15:00 +28°C° 0 mm 4 mps 760 mmHg 41%
16:00 +27°C° 0 mm 3 mps 760 mmHg 47%
17:00 +26°C° 0 mm 2 mps 761 mmHg 52%
18:00 +25°C° 0 mm 2 mps 761 mmHg 57%
19:00 +24°C° 0 mm 2 mps 761 mmHg 57%
20:00 +23°C° 0 mm 2 mps 761 mmHg 58%
21:00 +20°C° 0 mm 2 mps 761 mmHg 59%
22:00 +20°C° 0 mm 2 mps 761 mmHg 60%
23:00 +19°C° 0 mm 2 mps 761 mmHg 61%

Tomorrow, 6 August, Thursday

Time Temperature Precipitation Wind Pressure Humidity
00:00 +18°C° 0 mm 2 mps 761 mmHg 63%
01:00 +18°C° 0 mm 2 mps 762 mmHg 64%
02:00 +17°C° 0 mm 2 mps 762 mmHg 65%
03:00 +17°C° 0 mm 2 mps 762 mmHg 66%
04:00 +18°C° 0 mm 2 mps 762 mmHg 67%
05:00 +18°C° 0 mm 2 mps 763 mmHg 68%
06:00 +18°C° 0 mm 2 mps 763 mmHg 69%
07:00 +21°C° 0 mm 2 mps 763 mmHg 63%
08:00 +24°C° 0 mm 2 mps 763 mmHg 58%
09:00 +26°C° 0 mm 2 mps 764 mmHg 53%
10:00 +27°C° 0 mm 2 mps 764 mmHg 49%
11:00 +28°C° 0 mm 2 mps 764 mmHg 46%
12:00 +29°C° 0 mm 2 mps 764 mmHg 42%
13:00 +30°C° 0 mm 2 mps 764 mmHg 42%
14:00 +30°C° 0 mm 2 mps 764 mmHg 41%
15:00 +30°C° 0 mm 2 mps 764 mmHg 41%
16:00 +29°C° 0 mm 2 mps 764 mmHg 46%
17:00 +28°C° 0 mm 2 mps 763 mmHg 51%
18:00 +27°C° 0 mm 2 mps 763 mmHg 56%
19:00 +26°C° 0 mm 2 mps 764 mmHg 57%
20:00 +25°C° 0 mm 2 mps 764 mmHg 58%
21:00 +22°C° 0 mm 3 mps 764 mmHg 60%
22:00 +22°C° 0 mm 3 mps 764 mmHg 61%
23:00 +21°C° 0 mm 3 mps 764 mmHg 63%

Day after tomorrow, 7 August, Friday

Time Temperature Precipitation Wind Pressure Humidity
00:00 +21°C° 0 mm 3 mps 764 mmHg 65%
01:00 +20°C° 0 mm 3 mps 764 mmHg 66%
02:00 +20°C° 0 mm 2 mps 764 mmHg 66%
03:00 +19°C° 0 mm 2 mps 764 mmHg 67%
04:00 +20°C° 0 mm 2 mps 764 mmHg 67%
05:00 +20°C° 0 mm 2 mps 764 mmHg 67%
06:00 +21°C° 0 mm 2 mps 764 mmHg 67%
07:00 +24°C° 0 mm 2 mps 765 mmHg 62%
08:00 +26°C° 0 mm 2 mps 765 mmHg 56%
09:00 +28°C° 0 mm 2 mps 765 mmHg 51%
10:00 +29°C° 0 mm 2 mps 764 mmHg 48%
11:00 +30°C° 0 mm 2 mps 764 mmHg 44%
12:00 +31°C° 0 mm 2 mps 764 mmHg 41%
13:00 +32°C° 0 mm 2 mps 764 mmHg 41%
14:00 +32°C° 0 mm 2 mps 764 mmHg 40%
15:00 +32°C° 0 mm 2 mps 763 mmHg 40%
16:00 +31°C° 0 mm 2 mps 763 mmHg 45%
17:00 +29°C° 0 mm 2 mps 763 mmHg 51%
18:00 +28°C° 0 mm 2 mps 763 mmHg 56%
19:00 +27°C° 0 mm 2 mps 763 mmHg 59%
20:00 +25°C° 0 mm 2 mps 763 mmHg 61%
21:00 +22°C° 0 mm 3 mps 763 mmHg 64%
22:00 +23°C° 0 mm 2 mps 763 mmHg 66%
23:00 +23°C° 0 mm 2 mps 763 mmHg 69%

8 August, Saturday

Time Temperature Precipitation Wind Pressure Humidity
00:00 +21°C° 0 mm 2 mps 763 mmHg 71%
01:00 +21°C° 0 mm 2 mps 763 mmHg 72%
02:00 +22°C° 0 mm 1 mps 762 mmHg 74%
03:00 +21°C° 0 mm 1 mps 762 mmHg 76%
04:00 +22°C° 0 mm 1 mps 762 mmHg 74%
05:00 +23°C° 0 mm 1 mps 762 mmHg 72%
06:00 +24°C° 0 mm 1 mps 762 mmHg 70%
07:00 +26°C° 0 mm 1 mps 763 mmHg 64%
08:00 +28°C° 0 mm 1 mps 763 mmHg 58%
09:00 +29°C° 0 mm 0 mps 763 mmHg 52%
10:00 +32°C° 0 mm 1 mps 763 mmHg 49%
11:00 +33°C° 0 mm 1 mps 763 mmHg 45%
12:00 +34°C° 0 mm 1 mps 763 mmHg 41%
13:00 +34°C° 0 mm 1 mps 763 mmHg 42%
14:00 +34°C° 0 mm 2 mps 763 mmHg 43%
15:00 +34°C° 0 mm 3 mps 763 mmHg 44%
16:00 +31°C° 0 mm 3 mps 763 mmHg 51%
17:00 +29°C° 0 mm 4 mps 763 mmHg 58%
18:00 +27°C° 0 mm 4 mps 764 mmHg 64%
19:00 +25°C° 0 mm 4 mps 764 mmHg 70%
20:00 +23°C° 0 mm 4 mps 764 mmHg 76%
21:00 +21°C° 0 mm 5 mps 764 mmHg 82%
22:00 +21°C° 0.1 mm 4 mps 764 mmHg 85%
23:00 +20°C° 0.1 mm 4 mps 765 mmHg 88%

9 August, Sunday

Time Temperature Precipitation Wind Pressure Humidity
00:00 +19°C° 0.1 mm 4 mps 765 mmHg 91%
01:00 +19°C° 0 mm 4 mps 764 mmHg 92%
02:00 +19°C° 0 mm 4 mps 764 mmHg 93%
03:00 +18°C° 0 mm 4 mps 764 mmHg 94%
04:00 +17°C° 0 mm 5 mps 764 mmHg 93%
05:00 +19°C° 0 mm 5 mps 765 mmHg 92%
06:00 +19°C° 0 mm 5 mps 765 mmHg 90%
07:00 +19°C° 0 mm 5 mps 765 mmHg 88%
08:00 +20°C° 0 mm 5 mps 765 mmHg 86%
09:00 +20°C° 0 mm 5 mps 765 mmHg 84%
10:00 +21°C° 0 mm 5 mps 765 mmHg 80%
11:00 +22°C° 0 mm 5 mps 765 mmHg 77%
12:00 +22°C° 0 mm 5 mps 765 mmHg 73%
13:00 +23°C° 0 mm 5 mps 765 mmHg 71%
14:00 +23°C° 0 mm 5 mps 764 mmHg 68%
15:00 +25°C° 0 mm 5 mps 764 mmHg 66%
16:00 +23°C° 0 mm 5 mps 764 mmHg 67%
17:00 +22°C° 0 mm 5 mps 764 mmHg 68%
18:00 +21°C° 0 mm 5 mps 764 mmHg 70%
19:00 +19°C° 0 mm 5 mps 764 mmHg 71%
20:00 +17°C° 0 mm 5 mps 764 mmHg 72%
21:00 +16°C° 0 mm 5 mps 764 mmHg 73%
22:00 +15°C° 0 mm 5 mps 764 mmHg 74%
23:00 +15°C° 0 mm 5 mps 764 mmHg 76%

10 August, Monday

Time Temperature Precipitation Wind Pressure Humidity
00:00 +15°C° 0 mm 4 mps 764 mmHg 77%
01:00 +14°C° 0 mm 5 mps 764 mmHg 79%
02:00 +14°C° 0 mm 5 mps 764 mmHg 80%
03:00 +14°C° 0 mm 5 mps 763 mmHg 81%
04:00 +14°C° 0 mm 5 mps 763 mmHg 81%
05:00 +15°C° 0 mm 5 mps 763 mmHg 81%
06:00 +15°C° 0 mm 5 mps 763 mmHg 80%
07:00 +17°C° 0 mm 5 mps 763 mmHg 76%
08:00 +19°C° 0 mm 4 mps 763 mmHg 72%
09:00 +21°C° 0 mm 4 mps 763 mmHg 68%
10:00 +23°C° 0 mm 4 mps 763 mmHg 65%
11:00 +25°C° 0 mm 5 mps 763 mmHg 63%
12:00 +27°C° 0 mm 5 mps 763 mmHg 60%
13:00 +27°C° 0 mm 5 mps 762 mmHg 60%
14:00 +27°C° 0 mm 5 mps 762 mmHg 59%
15:00 +27°C° 0 mm 5 mps 762 mmHg 59%
16:00 +26°C° 0 mm 5 mps 762 mmHg 62%
17:00 +25°C° 0 mm 5 mps 762 mmHg 65%
18:00 +23°C° 0 mm 5 mps 762 mmHg 68%
19:00 +22°C° 0.1 mm 4 mps 762 mmHg 71%
20:00 +20°C° 0.1 mm 4 mps 762 mmHg 74%
21:00 +19°C° 0.1 mm 4 mps 762 mmHg 78%
22:00 +18°C° 0.1 mm 4 mps 762 mmHg 79%
23:00 +18°C° 0.1 mm 4 mps 762 mmHg 80%
Show more